User: anonymous   Login
Location: Katowice
(50.2611°N, 19.0242°E)
Time: 07:30:28
(UTC+02:00)
Language:

Transit 4A - Orbit

View from above orbital plane
View from above orbital plane
View from above satellite
View from above satellite

Ground track
Ground track

The orbit data is extracted from the following two-line orbital elements,

1   116U 61015A   19286.83915824 -.00000061  00000-0  12146-4 0  9993
2   116  66.8084  93.5195 0076678 187.4396 172.5553 13.91759806957846
Epoch (UTC): 13 October 2019 20:08:23
Eccentricity: 0.0076678
inclination: 66.8084°
perigee height: 866 km
apogee height: 978 km
right ascension of ascending node: 93.5195°
argument of perigee: 187.4396°
revolutions per day: 13.91759806
mean anomaly at epoch: 172.5553°
orbit number at epoch: 95784

The dashed part of the orbit path shows where the satellite is in the earth's shadow,  

DLR